San Jose, Costa Rica

11:34 AM CST on July 29, 2016 (GMT -0600)
Juan Santamaria International

Weather History for MROC - January, 2004

Change the Weather History Date:

Monday, January 26, 2004

  Actual Average Record
Temperature  
Mean Temperature 74 °F -  
Max Temperature 87 °F 81 °F 87 °F (1998)
Min Temperature 60 °F 64 °F 60 °F (2004)
Cooling Degree Days 8    
Growing Degree Days 24 (Base 50)    
Moisture  
Dew Point 59 °F    
Average Humidity 61    
Maximum Humidity 82    
Minimum Humidity 31    
Precipitation  
Precipitation 0.00 in 0.01 in - ()
Sea Level Pressure  
Sea Level Pressure 30.01 in    
Wind  
Wind Speed 8 mph ()    
Max Wind Speed 21 mph    
Max Gust Speed -    
Visibility 6.2 miles    
Events      
Averages and records for this station are not official NWS values.
T = Trace of Precipitation, MM = Missing Value Source: Averaged Metar Reports

Daily Weather History Graph

Daily Weather History Graph

Search for Another Location

Airport or City:

Trip Planner

Search our weather history database for the weather conditions in past years. The results will help you decide how hot, cold, wet, or windy it might be!

Date:

Astronomy

Jan. 26, 2004 Rise Set
Actual Time 5:59 AM CST 5:39 PM CST
Civil Twilight 5:37 AM CST 6:01 PM CST
Nautical Twilight 5:11 AM CST 6:26 PM CST
Astronomical Twilight 4:46 AM CST 6:52 PM CST
Moon 9:46 AM CST (1/26) 10:08 PM CST (1/26)
Length of Visible Light 12h 24m
Length of Day
11h 39m
Waxing Crescent, 26% of the Moon is Illuminated
Jan 26
Waxing Crescent
Jan 29
First Quarter
Feb 6
Full
Feb 13
Last Quarter
Feb 20
New

Hourly Weather History & Observations

Time (CST) Temp. Heat Index Dew Point Humidity Pressure Visibility Wind Dir Wind Speed Gust Speed Precip Events Conditions
12:00 AM 66.2 °F - 59.0 °F 78% 30.01 in - East 5.8 mph - N/A   Clear
1:00 AM 64.4 °F - 57.2 °F 77% 29.99 in - East 5.8 mph - N/A   Clear
5:19 AM 60.8 °F - 55.4 °F 82% 30.01 in - ENE 9.2 mph - N/A   Clear
6:00 AM 62.6 °F - 55.4 °F 77% 30.03 in - ENE 9.2 mph - N/A   Clear
7:00 AM 64.4 °F - 55.4 °F 73% 30.04 in - ENE 10.4 mph - N/A   Clear
8:00 AM 71.6 °F - 57.2 °F 60% 30.06 in - East 16.1 mph - N/A   Clear
9:00 AM 77.0 °F - 55.4 °F 47% 30.05 in - East 20.7 mph - N/A   Clear
10:00 AM 80.6 °F 80.5 °F 55.4 °F 42% 30.05 in - East 17.3 mph - N/A   Clear
11:00 AM 82.4 °F 81.7 °F 55.4 °F 39% 30.04 in - East 15.0 mph - N/A   Clear
12:00 PM 86.0 °F 84.2 °F 53.6 °F 33% 30.01 in 6.2 mi East 6.9 mph - N/A   Scattered Clouds
1:00 PM 87.8 °F 85.7 °F 53.6 °F 31% 29.98 in 6.2 mi SE 13.8 mph - N/A   Scattered Clouds
2:00 PM 87.8 °F 87.1 °F 59.0 °F 38% 29.95 in 6.2 mi SSW 10.4 mph - N/A   Partly Cloudy
3:00 PM 84.2 °F 86.6 °F 66.2 °F 55% 29.94 in 6.2 mi West 10.4 mph - N/A   Partly Cloudy
4:00 PM 82.4 °F 83.9 °F 64.4 °F 54% 29.95 in - WSW 6.9 mph - N/A   Clear
5:00 PM 78.8 °F - 64.4 °F 61% 29.96 in - WSW 8.1 mph - N/A   Clear
6:00 PM 73.4 °F - 64.4 °F 73% 29.98 in - WSW 5.8 mph - N/A   Clear
7:00 PM 71.6 °F - 60.8 °F 69% 30.00 in - SE 4.6 mph - N/A   Clear
8:00 PM 71.6 °F - 62.6 °F 73% 30.02 in - NE 10.4 mph - N/A   Clear
9:00 PM 69.8 °F - 60.8 °F 73% 30.04 in - East 3.5 mph - N/A   Clear
10:00 PM 66.2 °F - 59.0 °F 78% 30.04 in - East 4.6 mph - N/A   Clear
11:00 PM 64.4 °F - 57.2 °F 77% 30.04 in - ENE 8.1 mph - N/A   Clear